World > North America > United States > New York

Hourly Sammonsville, NY Regional Weather

Feedback E-mail the Weather

Latest News

Sammonsville, NY Weather Maps

°F °C°F °C
Sammonsville Weather Map
UTC Time: 5/24/2022, 22:12
Your Time:

Sammonsville, NY Regional Weather

Expires:202205242300;;524007
ASUS41 KALY 242210
RWRALY

NEW YORK STATE HOURLY WEATHER ROUNDUP
NATIONAL WEATHER SERVICE ALBANY NY
600 PM EDT TUE MAY 24 2022

NOTE: "FAIR" INDICATES FEW OR NO CLOUDS BELOW 12,000 FEET WITH NO
SIGNIFICANT WEATHER AND/OR NO OBSTRUCTIONS TO VISIBILITY.


NYZ032-033-038>043-046>054-057>066-NYZ062>081-082-084-242300-
EAST

  
CITY           SKY/WX    TMP DP  RH WIND       PRES   REMARKS
ALBANY         PTSUNNY   71  46  40 SE5       30.24F                  
GLENS FALLS    MOSUNNY   68  44  42 SE7       30.23F                  
POUGHKEEPSIE   CLOUDY    68  47  46 VRB6      30.25F                  
NEWBURGH       PTSUNNY   66  46  48 S6        30.27F                  
MONTGOMERY     CLOUDY    64  44  48 S7        30.27F                  
WHITE PLAINS   PTSUNNY   64  44  48 SE5       30.28S                  
ISLIP          PTSUNNY   64  46  52 SE12      30.28S                  
NEW YORK CITY  PTSUNNY   64  44  48 NE12      30.28F                  
CENTRAL PARK   CLOUDY    66  48  52 NE5       30.31S                  
$$


SKY/WX - Weather  TMP - Temperature  DP - Dew Point  RH - Humidity
WIND - Wind Direction/Speed PRES - Barometric Pressure VSB - Visibility
WCI - Wind Chill Index E13G22 Wind - East Wind 13 mph/Gusts of 22 mph

Trending Headlines

Sammonsville Radar Loop



Sammonsville Quick Facts


National Two Day Weather Forecast


E-mail the Sammonsville Weather Forecast

Voice your opinion or tell us about page issues...